Weather in Canacona

India     14°58′51″N   74°06′12″E
temp.,
°C
wind,
m/s
gust,
m/s
humid.,
%
clouds,
%
prec.,
mm/h
press.,
hPa
HPBL,
m
23 april, fri
fri2323:30+28w127499 0.0 1012534
02:30+27wnw2276100 0.0 1010531
05:30+27nw1177100 0.1 1010451
08:30+29ne016646 0.1 1012866
11:30+30wsw426318 0.1 1011820
14:30+30w656597 0.0 1008687
17:30+30wnw66642 0.0 1008888
20:30+28nw347023 0.0 1010600
24 april, sat
sat2423:30+28n247128 0.0 1011524
02:30+27n23744 0.0 1009300
05:30+26nne337648 0.0 1009243
08:30+28n24649 0.0 1011484
11:30+30wnw54585 0.0 1010702
14:30+31wnw77585 0.0 1007729
17:30+30nw676192 0.0 1008896
20:30+28nw466690 0.0 1010581
25 april, sun
sun2523:30+28nnw466826 0.0 1010603
02:30+27n34705 0.0 1008406
05:30+26ne227335 0.0 1010237
08:30+29e116314 0.0 1011451
11:30+30w54615 0.0 1010745
14:30+30w66625 0.0 1007735
17:30+29wnw55665 0.0 1007880
20:30+28nw347213 0.0 1009634
26 april, mon
mon2623:30+28n237445 0.0 1010461
02:30+27n227866 0.0 1007265
05:30+26n22806 0.0 1008276
08:30+28ne117426 0.0 1010304
11:30+30w546876 0.0 1009740
14:30+30wnw65685 0.0 1006735
17:30+29wnw447253 0.0 1006753
20:30+28wnw337738 0.0 1008518
27 april, tue
tue2723:30+28w117818 0.1 1009277
02:30+28nnw238167 0.0 1007367
05:30+27ene228364 0.1 1008159
08:30+29nne117398 1.8 1010373
11:30+31nw336273 1.9 1009571
14:30+30w657026 0.0 1007675
17:30+30wsw44720 0.0 1006608
20:30+29nnw57770 0.0 1009576